Overview Statistics Trail Chart Weather Telemetry Raw packets
 

This is the latest recevied weather packets stored in our database for station/object KW4UJ. If no packets are shown the sender has not sent any weather packets the latest 10 day(s).

<< 54 55 56 57 58 59 60 >>
Time Temp. Humidity Pressure Rain* Wind** Luminosity Snow
1788268057 28.33° C 77% 1017.3 hPa 0 mm - 201 W/m² -
1788267756 27.78° C 80% 1017.4 hPa 0 mm - 197 W/m² -
1788267454 27.22° C 82% 1017.3 hPa 0 mm - 144 W/m² -
1788267150 26.11° C 86% 1017.4 hPa 0 mm - 63 W/m² -
1788266850 25° C 89% 1017.6 hPa 0 mm - 78 W/m² -
1788266545 25° C 90% 1017.6 hPa 0 mm - 67 W/m² -
1788266244 25° C 90% 1017.6 hPa 0 mm - 43 W/m² -
1788265939 25° C 90% 1017.7 hPa 0 mm - 32 W/m² -
1788265638 25° C 90% 1017.5 hPa 0 mm - 33 W/m² -
1788265333 25° C 90% 1017.5 hPa 0 mm - 42 W/m² -
1788265027 25° C 90% 1017.6 hPa 0 mm - 38 W/m² -
1788264723 25° C 90% 1017.7 hPa 0 mm - 40 W/m² -
1788264422 25° C 91% 1017.5 hPa 0 mm - 43 W/m² -
1788264117 25° C 91% 1017.4 hPa 0 mm - 41 W/m² -
1788263812 25° C 91% 1017.3 hPa 0 mm - 37 W/m² -
1788263508 24.44° C 91% 1017.3 hPa 0 mm - 38 W/m² -
1788263205 24.44° C 92% 1017.2 hPa 0 mm - 39 W/m² -
1788262904 24.44° C 92% 1017.1 hPa 0 mm - 40 W/m² -
1788262603 24.44° C 92% 1017.1 hPa 0 mm - 32 W/m² -
1788262299 23.89° C 93% 1016.9 hPa 0 mm - 29 W/m² -
1788261993 23.89° C 93% 1017.1 hPa 0 mm - 28 W/m² -
1788261693 23.89° C 93% 1017 hPa 0 mm - 27 W/m² -
1788261392 23.89° C 93% 1017 hPa 0 mm - 24 W/m² -
1788261092 23.89° C 94% 1017.1 hPa 0 mm - 22 W/m² -
1788260787 23.89° C 94% 1017.1 hPa 0 mm - 18 W/m² -

* Rain latest hour (hover to see other rain measurements)
** Current wind speed in m/s (hover to see current wind gust speed)